Find Starlink 34470

NORAD ID: 64703 Int'l Des: 2025-142 Owner: SPXS Country: US Constellation: starlink operational
LEOCIRCULAR

現在のビュー

3D地球を読み込み中...

About Starlink 34470

Starlink 34470 (NORAD 64703) is a starlink constellation satellite (v2 mini) launched Jun 28, 2025 by SPXS of US. It operates in LEO, CIRCULAR orbit with a mass of 575.00 kg.

次回通過

Passes for default location (London). Set your location on the main map for personalized predictions.

高度履歴

Loading altitude history...

軌道要素

1 64703U 25142H 26237.31665554 .00002606 00000-0 22617-3 0 9994
2 64703 69.9989 249.0910 0004098 261.3431 98.7264 14.98326953 64723
Epoch: Aug 25, 2026 • Age: 7 hours

現在のステータス

高度 579.4 km
遠地点 / 近地点 N/A
速度 7.57 km/s
衛星直下点 39.97°N, 79.21°E
打ち上げ日 Jun 28, 2025
運用期間 1.1 years
タイプ internet

技術仕様

分類 Payload
質量 575.00 kg
乾燥質量 530.00 kg
総質量 575.00 kg
長さ 0.30 m
直径 4.10 m
スパン 29.00 m
形状 Box + pan
製造者 SPXS
バスタイプ Starlink V2MO
フェーズステータス In Orbit
所有者/国 SPXS/US

Most Searched